QPF
0.00 0.00 0.00 0.00 0.00 0.00 0.00 0.00 0.00 0.00 0.00 0.00 0.01 0.01 0.01 0.01 0.01 0.01 0.02 0.02 0.02 0.02 0.02 0.02 0.02 0.02 0.04 0.05 0.08 0.11 0.12 0.14 0.19 0.24 0.26 0.26 0.27 0.33 0.38 0.42 0.39 0.33 0.26 0.22
0.00 0.00 0.00 0.00 0.00 0.00 0.00 0.00 0.00 0.00 0.00 0.00 0.00 0.01 0.01 0.01 0.01 0.01 0.01 0.02 0.02 0.02 0.02 0.01 0.01 0.01 0.01 0.01 0.02 0.04 0.05 0.07 0.11 0.15 0.18 0.20 0.30 0.38 0.43 0.45 0.43 0.39 0.35 0.32
0.00 0.00 0.00 0.00 0.00 0.00 0.00 0.00 0.00 0.00 0.00 0.00 0.00 0.00 0.00 0.00 0.01 0.01 0.01 0.02 0.02 0.02 0.02 0.01 0.01 0.01 0.01 0.01 0.01 0.01 0.02 0.03 0.05 0.06 0.09 0.15 0.23 0.30 0.36 0.35 0.37 0.42 0.44 0.42
0.00 0.00 0.00 0.00 0.00 0.00 0.00 0.00 0.00 0.00 0.00 0.00 0.00 0.00 0.00 0.00 0.01 0.01 0.02 0.02 0.03 0.02 0.02 0.01 0.01 0.01 0.01 0.01 0.01 0.00 0.00 0.01 0.02 0.03 0.05 0.08 0.13 0.17 0.22 0.29 0.38 0.43 0.47 0.46
0.00 0.00 0.00 0.00 0.00 0.00 0.00 0.00 0.00 0.00 0.00 0.00 0.00 0.00 0.00 0.00 0.01 0.01 0.02 0.03 0.03 0.03 0.02 0.02 0.02 0.02 0.02 0.02 0.01 0.01 0.00 0.00 0.00 0.01 0.02 0.03 0.07 0.10 0.17 0.29 0.35 0.38 0.39 0.45
0.00 0.00 0.00 0.00 0.00 0.00 0.00 0.00 0.00 0.00 0.00 0.00 0.00 0.00 0.00 0.01 0.01 0.01 0.01 0.02 0.03 0.03 0.05 0.04 0.02 0.04 0.04 0.02 0.01 0.01 0.01 0.00 0.00 0.01 0.02 0.02 0.04 0.05 0.10 0.16 0.21 0.26 0.30 0.38
0.00 0.00 0.00 0.00 0.00 0.00 0.00 0.00 0.00 0.00 0.00 0.00 0.00 0.00 0.01 0.01 0.01 0.01 0.02 0.02 0.02 0.05 0.06 0.03 0.04 0.06 0.05 0.04 0.02 0.02 0.01 0.00 0.01 0.01 0.01 0.02 0.02 0.03 0.04 0.05 0.09 0.13 0.18 0.24
0.00 0.00 0.00 0.00 0.00 0.00 0.00 0.00 0.00 0.00 0.02 0.02 0.00 0.01 0.01 0.01 0.01 0.02 0.03 0.03 0.04 0.06 0.06 0.05 0.06 0.09 0.10 0.09 0.06 0.05 0.03 0.01 0.01 0.01 0.01 0.02 0.02 0.02 0.02 0.03 0.05 0.07 0.12 0.18
0.00 0.00 0.00 0.00 0.00 0.00 0.00 0.00 0.00 0.00 0.00 0.00 0.01 0.01 0.01 0.01 0.02 0.04 0.04 0.04 0.04 0.04 0.07 0.08 0.11 0.14 0.17 0.18 0.11 0.07 0.05 0.03 0.02 0.02 0.02 0.02 0.03 0.02 0.02 0.02 0.03 0.04 0.06 0.09
0.00 0.00 0.00 0.00 0.00 0.00 0.00 0.00 0.00 0.00 0.00 0.00 0.00 0.01 0.03 0.04 0.04 0.03 0.03 0.04 0.06 0.07 0.10 0.13 0.17 0.19 0.23 0.23 0.19 0.12 0.08 0.07 0.04 0.04 0.03 0.03 0.03 0.02 0.02 0.02 0.02 0.03 0.04 0.05
0.00 0.00 0.00 0.00 0.00 0.00 0.00 0.00 0.00 0.00 0.00 0.00 0.00 0.01 0.03 0.04 0.03 0.02 0.03 0.05 0.09 0.10 0.12 0.16 0.22 0.25 0.23 0.22 0.19 0.15 0.11 0.10 0.07 0.05 0.04 0.03 0.03 0.03 0.02 0.02 0.02 0.02 0.03 0.05
0.00 0.00 0.00 0.00 0.00 0.00 0.00 0.00 0.00 0.00 0.00 0.00 0.00 0.01 0.01 0.01 0.01 0.02 0.03 0.04 0.06 0.08 0.08 0.12 0.19 0.18 0.22 0.24 0.19 0.17 0.16 0.13 0.10 0.06 0.05 0.05 0.03 0.03 0.03 0.02 0.03 0.02 0.03 0.04
0.00 0.00 0.00 0.00 0.00 0.00 0.00 0.00 0.00 0.00 0.00 0.00 0.00 0.01 0.01 0.01 0.01 0.01 0.02 0.03 0.04 0.05 0.06 0.09 0.13 0.13 0.18 0.20 0.18 0.16 0.15 0.14 0.12 0.10 0.07 0.07 0.06 0.05 0.03 0.02 0.02 0.03 0.03 0.04
0.00 0.00 0.00 0.00 0.00 0.00 0.00 0.00 0.00 0.00 0.00 0.00 0.00 0.00 0.00 0.00 0.01 0.01 0.01 0.02 0.03 0.02 0.03 0.04 0.09 0.11 0.17 0.19 0.19 0.15 0.15 0.12 0.08 0.07 0.06 0.04 0.04 0.04 0.03 0.02 0.02 0.02 0.03 0.03
0.00 0.00 0.00 0.00 0.00 0.00 0.00 0.00 0.00 0.00 0.00 0.00 0.00 0.00 0.00 0.00 0.00 0.00 0.01 0.01 0.02 0.02 0.02 0.03 0.05 0.08 0.10 0.11 0.13 0.13 0.12 0.10 0.07 0.04 0.04 0.03 0.03 0.03 0.02 0.02 0.02 0.03 0.03 0.04
0.00 0.00 0.00 0.00 0.00 0.00 0.00 0.00 0.00 0.00 0.00 0.00 0.00 0.00 0.00 0.00 0.00 0.00 0.00 0.00 0.01 0.01 0.01 0.01 0.02 0.04 0.05 0.05 0.04 0.04 0.04 0.03 0.02 0.02 0.02 0.01 0.01 0.00 0.01 0.01 0.01 0.01 0.03 0.04
0.00 0.00 0.00 0.00 0.00 0.00 0.00 0.00 0.00 0.00 0.00 0.00 0.00 0.00 0.00 0.00 0.00 0.00 0.00 0.00 0.00 0.00 0.00 0.00 0.00 0.00 0.01 0.01 0.01 0.01 0.01 0.01 0.01 0.01 0.00 0.00 0.00 0.00 0.00 0.00 0.00 0.00 0.00 0.01
0.00 0.00 0.00 0.00 0.00 0.00 0.00 0.00 0.00 0.00 0.00 0.00 0.00 0.00 0.00 0.00 0.00 0.00 0.00 0.00 0.00 0.00 0.00 0.00 0.00 0.00 0.00 0.00 0.00 0.00 0.00 0.00 0.00 0.00 0.00 0.00 0.00 0.00 0.00 0.00 0.00 0.00 0.00 0.00
0.00 0.00 0.00 0.00 0.00 0.00 0.00 0.00 0.00 0.00 0.00 0.00 0.00 0.00 0.00 0.00 0.00 0.00 0.00 0.00 0.00 0.00 0.00 0.00 0.00 0.00 0.00 0.00 0.00 0.00 0.00 0.00 0.00 0.00 0.00 0.00 0.00 0.00 0.00 0.00 0.00 0.00 0.00 0.00
0.00 0.00 0.00 0.00 0.00 0.00 0.00 0.00 0.00 0.00 0.00 0.00 0.00 0.00 0.00 0.00 0.00 0.00 0.00 0.00 0.00 0.00 0.00 0.00 0.00 0.00 0.00 0.00 0.00 0.00 0.00 0.00 0.00 0.00 0.00 0.00 0.00 0.00 0.00 0.00 0.00 0.00 0.00 0.00
0.00 0.00 0.00 0.00 0.00 0.00 0.00 0.00 0.00 0.00 0.00 0.00 0.00 0.00 0.00 0.00 0.00 0.00 0.00 0.00 0.00 0.00 0.00 0.00 0.00 0.00 0.00 0.00 0.00 0.00 0.00 0.00 0.00 0.00 0.00 0.00 0.00 0.00 0.00 0.00 0.00 0.00 0.00 0.00
0.00 0.00 0.00 0.00 0.00 0.00 0.00 0.00 0.00 0.00 0.00 0.00 0.00 0.00 0.00 0.00 0.00 0.00 0.00 0.00 0.00 0.00 0.00 0.00 0.00 0.00 0.00 0.00 0.00 0.00 0.00 0.00 0.00 0.00 0.00 0.00 0.00 0.00 0.00 0.00 0.00 0.00 0.00 0.00
0.00 0.00 0.00 0.00 0.00 0.00 0.00 0.00 0.00 0.00 0.00 0.00 0.00 0.00 0.00 0.00 0.00 0.00 0.00 0.00 0.00 0.00 0.00 0.00 0.00 0.00 0.00 0.00 0.00 0.00 0.00 0.00 0.00 0.00 0.00 0.00 0.00 0.00 0.00 0.00 0.00 0.00 0.00 0.00
0.00 0.00 0.00 0.00 0.00 0.00 0.00 0.00 0.00 0.00 0.00 0.00 0.00 0.00 0.00 0.00 0.00 0.00 0.00 0.00 0.00 0.00 0.00 0.00 0.00 0.00 0.00 0.00 0.00 0.00 0.00 0.00 0.00 0.00 0.00 0.00 0.00 0.00 0.00 0.00 0.00 0.00 0.00 0.00
0.00 0.00 0.00 0.00 0.00 0.00 0.00 0.00 0.00 0.00 0.00 0.00 0.00 0.00 0.00 0.00 0.00 0.00 0.00 0.00 0.00 0.00 0.00 0.00 0.00 0.00 0.00 0.00 0.00 0.00 0.00 0.00 0.00 0.00 0.00 0.00 0.00 0.00 0.00 0.00 0.00 0.00 0.00 0.00
0.00 0.00 0.00 0.00 0.00 0.00 0.00 0.00 0.00 0.00 0.00 0.00 0.00 0.00 0.00 0.00 0.00 0.00 0.00 0.00 0.00 0.00 0.00 0.00 0.00 0.00 0.00 0.00 0.00 0.00 0.00 0.00 0.00 0.00 0.00 0.00 0.00 0.00 0.00 0.00 0.00 0.00 0.00 0.00
MSLP
1016.25 1017.32 1018.14 1018.69 1019.04 1019.29 1019.54 1019.90 1020.43 1021.14 1021.96 1022.81 1023.58 1024.15 1024.45 1024.44 1024.14 1023.61 1022.94 1022.21 1021.50 1020.86 1020.28 1019.76 1019.26 1018.74 1018.15 1017.50 1016.78 1016.04 1015.32 1014.65 1014.06 1013.58 1013.20 1012.90 1012.67 1012.49 1012.35 1012.26 1012.23 1012.29 1012.46 1012.74
1017.91 1018.89 1019.57 1019.98 1020.19 1020.31 1020.48 1020.78 1021.27 1021.95 1022.76 1023.59 1024.32 1024.85 1025.10 1025.03 1024.67 1024.08 1023.36 1022.60 1021.85 1021.17 1020.56 1020.01 1019.47 1018.90 1018.29 1017.61 1016.88 1016.14 1015.42 1014.77 1014.19 1013.71 1013.31 1012.96 1012.65 1012.37 1012.12 1011.91 1011.79 1011.77 1011.90 1012.17
1019.34 1020.16 1020.69 1020.95 1021.04 1021.09 1021.19 1021.47 1021.95 1022.62 1023.41 1024.20 1024.89 1025.36 1025.53 1025.39 1024.97 1024.33 1023.56 1022.76 1021.98 1021.27 1020.64 1020.06 1019.48 1018.89 1018.25 1017.57 1016.86 1016.14 1015.47 1014.86 1014.33 1013.88 1013.47 1013.10 1012.73 1012.37 1012.02 1011.71 1011.49 1011.40 1011.46 1011.71
1020.45 1021.09 1021.45 1021.59 1021.60 1021.61 1021.71 1022.01 1022.51 1023.20 1023.98 1024.74 1025.36 1025.75 1025.84 1025.62 1025.11 1024.41 1023.60 1022.76 1021.96 1021.23 1020.57 1019.96 1019.36 1018.75 1018.10 1017.42 1016.74 1016.07 1015.46 1014.91 1014.44 1014.03 1013.65 1013.28 1012.89 1012.47 1012.05 1011.67 1011.37 1011.21 1011.22 1011.41
1021.25 1021.70 1021.91 1021.95 1021.93 1021.96 1022.12 1022.48 1023.05 1023.77 1024.55 1025.28 1025.83 1026.13 1026.12 1025.79 1025.21 1024.44 1023.58 1022.70 1021.87 1021.12 1020.43 1019.80 1019.18 1018.55 1017.89 1017.22 1016.56 1015.94 1015.38 1014.90 1014.49 1014.14 1013.81 1013.46 1013.07 1012.64 1012.19 1011.77 1011.42 1011.21 1011.16 1011.30
1021.81 1022.07 1022.16 1022.16 1022.16 1022.25 1022.52 1022.99 1023.65 1024.42 1025.21 1025.89 1026.37 1026.56 1026.43 1025.99 1025.31 1024.47 1023.55 1022.64 1021.79 1021.02 1020.31 1019.65 1019.01 1018.35 1017.69 1017.02 1016.37 1015.77 1015.25 1014.83 1014.48 1014.18 1013.90 1013.59 1013.23 1012.83 1012.39 1011.97 1011.62 1011.38 1011.30 1011.39
1022.20 1022.32 1022.34 1022.33 1022.39 1022.60 1023.00 1023.60 1024.36 1025.18 1025.97 1026.60 1026.98 1027.05 1026.80 1026.24 1025.46 1024.54 1023.57 1022.63 1021.76 1020.97 1020.25 1019.57 1018.91 1018.23 1017.54 1016.86 1016.21 1015.62 1015.12 1014.72 1014.41 1014.16 1013.92 1013.67 1013.37 1013.02 1012.63 1012.25 1011.92 1011.69 1011.59 1011.64
1022.52 1022.54 1022.53 1022.56 1022.72 1023.06 1023.60 1024.33 1025.17 1026.03 1026.80 1027.36 1027.63 1027.57 1027.18 1026.51 1025.63 1024.64 1023.64 1022.67 1021.79 1021.00 1020.27 1019.59 1018.91 1018.21 1017.50 1016.80 1016.13 1015.53 1015.03 1014.64 1014.34 1014.11 1013.92 1013.71 1013.48 1013.19 1012.88 1012.56 1012.28 1012.08 1011.99 1012.02
1022.79 1022.78 1022.78 1022.89 1023.17 1023.64 1024.31 1025.14 1026.03 1026.90 1027.61 1028.07 1028.22 1028.03 1027.51 1026.73 1025.77 1024.74 1023.71 1022.74 1021.87 1021.09 1020.38 1019.70 1019.02 1018.32 1017.60 1016.88 1016.19 1015.56 1015.05 1014.64 1014.33 1014.11 1013.94 1013.77 1013.59 1013.38 1013.14 1012.90 1012.68 1012.52 1012.45 1012.46
1023.01 1023.02 1023.10 1023.30 1023.69 1024.28 1025.04 1025.92 1026.82 1027.64 1028.27 1028.62 1028.64 1028.32 1027.70 1026.83 1025.83 1024.77 1023.75 1022.81 1021.97 1021.23 1020.55 1019.90 1019.23 1018.55 1017.83 1017.10 1016.40 1015.77 1015.22 1014.79 1014.47 1014.23 1014.06 1013.91 1013.77 1013.61 1013.43 1013.25 1013.10 1012.98 1012.92 1012.92
1023.15 1023.24 1023.41 1023.72 1024.21 1024.87 1025.67 1026.55 1027.41 1028.15 1028.66 1028.88 1028.78 1028.36 1027.66 1026.75 1025.73 1024.70 1023.72 1022.83 1022.05 1021.37 1020.74 1020.14 1019.53 1018.88 1018.19 1017.49 1016.80 1016.16 1015.61 1015.15 1014.80 1014.54 1014.35 1014.19 1014.06 1013.92 1013.78 1013.65 1013.53 1013.44 1013.39 1013.38
1023.20 1023.39 1023.66 1024.07 1024.62 1025.32 1026.11 1026.94 1027.70 1028.32 1028.70 1028.80 1028.59 1028.10 1027.36 1026.46 1025.48 1024.51 1023.60 1022.80 1022.10 1021.49 1020.95 1020.42 1019.87 1019.28 1018.65 1018.00 1017.35 1016.74 1016.19 1015.73 1015.35 1015.06 1014.83 1014.65 1014.50 1014.36 1014.22 1014.10 1014.00 1013.92 1013.86 1013.83
1023.18 1023.48 1023.84 1024.31 1024.89 1025.56 1026.29 1027.01 1027.65 1028.12 1028.38 1028.37 1028.09 1027.56 1026.84 1025.99 1025.10 1024.22 1023.42 1022.72 1022.12 1021.60 1021.14 1020.69 1020.22 1019.71 1019.16 1018.58 1018.00 1017.44 1016.93 1016.47 1016.09 1015.77 1015.50 1015.28 1015.09 1014.92 1014.76 1014.63 1014.52 1014.42 1014.35 1014.29
1023.15 1023.54 1023.96 1024.45 1025.00 1025.60 1026.22 1026.80 1027.28 1027.61 1027.74 1027.64 1027.33 1026.82 1026.16 1025.41 1024.64 1023.89 1023.22 1022.63 1022.13 1021.70 1021.31 1020.93 1020.54 1020.11 1019.66 1019.18 1018.69 1018.20 1017.75 1017.33 1016.95 1016.61 1016.32 1016.05 1015.81 1015.59 1015.40 1015.24 1015.10 1014.99 1014.89 1014.81
1023.21 1023.64 1024.08 1024.53 1025.01 1025.49 1025.95 1026.36 1026.68 1026.86 1026.88 1026.74 1026.42 1025.97 1025.42 1024.80 1024.17 1023.57 1023.03 1022.55 1022.14 1021.77 1021.44 1021.12 1020.80 1020.45 1020.09 1019.71 1019.32 1018.93 1018.55 1018.19 1017.84 1017.50 1017.19 1016.89 1016.61 1016.35 1016.12 1015.92 1015.75 1015.61 1015.50 1015.38
1023.42 1023.85 1024.24 1024.62 1024.97 1025.29 1025.57 1025.80 1025.94 1025.99 1025.93 1025.76 1025.48 1025.11 1024.68 1024.22 1023.75 1023.30 1022.88 1022.49 1022.15 1021.83 1021.54 1021.25 1020.97 1020.68 1020.40 1020.11 1019.82 1019.54 1019.25 1018.96 1018.66 1018.35 1018.04 1017.73 1017.42 1017.13 1016.87 1016.65 1016.46 1016.30 1016.17 1016.04
1023.82 1024.19 1024.49 1024.74 1024.93 1025.06 1025.16 1025.20 1025.18 1025.11 1024.99 1024.81 1024.59 1024.33 1024.03 1023.72 1023.40 1023.09 1022.77 1022.46 1022.16 1021.86 1021.57 1021.29 1021.03 1020.78 1020.56 1020.35 1020.16 1019.98 1019.79 1019.58 1019.35 1019.09 1018.81 1018.50 1018.20 1017.90 1017.63 1017.40 1017.21 1017.05 1016.91 1016.77
1024.35 1024.62 1024.80 1024.89 1024.90 1024.85 1024.75 1024.61 1024.46 1024.29 1024.13 1023.96 1023.80 1023.64 1023.48 1023.31 1023.13 1022.92 1022.69 1022.43 1022.15 1021.85 1021.54 1021.25 1020.99 1020.76 1020.57 1020.43 1020.32 1020.23 1020.14 1020.02 1019.88 1019.68 1019.45 1019.18 1018.90 1018.62 1018.37 1018.15 1017.96 1017.81 1017.67 1017.53
1024.89 1025.04 1025.07 1024.99 1024.83 1024.60 1024.33 1024.05 1023.78 1023.55 1023.35 1023.21 1023.11 1023.05 1023.01 1022.96 1022.89 1022.78 1022.61 1022.38 1022.10 1021.79 1021.46 1021.14 1020.86 1020.64 1020.48 1020.39 1020.34 1020.34 1020.33 1020.31 1020.25 1020.14 1019.97 1019.76 1019.53 1019.29 1019.06 1018.87 1018.70 1018.56 1018.43 1018.29
1025.27 1025.29 1025.18 1024.95 1024.64 1024.27 1023.87 1023.48 1023.13 1022.85 1022.66 1022.54 1022.51 1022.53 1022.58 1022.63 1022.65 1022.61 1022.49 1022.28 1022.01 1021.68 1021.33 1020.99 1020.70 1020.48 1020.34 1020.28 1020.30 1020.36 1020.43 1020.49 1020.51 1020.48 1020.39 1020.25 1020.08 1019.89 1019.71 1019.54 1019.40 1019.27 1019.14 1018.99
1025.33 1025.23 1025.00 1024.66 1024.24 1023.77 1023.29 1022.84 1022.46 1022.17 1021.99 1021.92 1021.94 1022.04 1022.17 1022.30 1022.38 1022.39 1022.31 1022.14 1021.87 1021.54 1021.19 1020.85 1020.55 1020.34 1020.22 1020.19 1020.25 1020.36 1020.50 1020.63 1020.73 1020.77 1020.75 1020.68 1020.57 1020.43 1020.29 1020.16 1020.03 1019.91 1019.78 1019.61
1024.96 1024.77 1024.46 1024.04 1023.56 1023.05 1022.55 1022.10 1021.73 1021.47 1021.34 1021.31 1021.40 1021.55 1021.75 1021.93 1022.07 1022.14 1022.10 1021.95 1021.71 1021.41 1021.07 1020.74 1020.47 1020.27 1020.17 1020.17 1020.26 1020.41 1020.59 1020.77 1020.92 1021.03 1021.07 1021.06 1021.00 1020.91 1020.81 1020.70 1020.58 1020.46 1020.31 1020.13
1024.16 1023.91 1023.54 1023.10 1022.62 1022.12 1021.66 1021.26 1020.95 1020.76 1020.68 1020.73 1020.87 1021.08 1021.32 1021.56 1021.74 1021.85 1021.85 1021.75 1021.56 1021.30 1021.00 1020.71 1020.46 1020.29 1020.21 1020.23 1020.34 1020.50 1020.71 1020.92 1021.11 1021.25 1021.34 1021.38 1021.37 1021.32 1021.24 1021.15 1021.04 1020.91 1020.75 1020.55
1023.02 1022.71 1022.33 1021.90 1021.46 1021.04 1020.66 1020.35 1020.14 1020.05 1020.06 1020.17 1020.37 1020.63 1020.92 1021.19 1021.41 1021.56 1021.61 1021.56 1021.43 1021.22 1020.98 1020.74 1020.54 1020.40 1020.34 1020.37 1020.47 1020.64 1020.85 1021.06 1021.26 1021.43 1021.55 1021.62 1021.64 1021.62 1021.57 1021.50 1021.40 1021.26 1021.10 1020.88
1021.66 1021.32 1020.94 1020.56 1020.20 1019.88 1019.63 1019.45 1019.37 1019.39 1019.50 1019.69 1019.95 1020.25 1020.57 1020.86 1021.12 1021.30 1021.40 1021.40 1021.33 1021.19 1021.02 1020.83 1020.67 1020.56 1020.51 1020.54 1020.63 1020.77 1020.96 1021.15 1021.34 1021.51 1021.64 1021.74 1021.78 1021.79 1021.77 1021.72 1021.63 1021.51 1021.34 1021.14
1020.25 1019.88 1019.53 1019.22 1018.96 1018.77 1018.66 1018.63 1018.69 1018.82 1019.03 1019.30 1019.62 1019.95 1020.29 1020.61 1020.88 1021.09 1021.22 1021.28 1021.26 1021.18 1021.07 1020.94 1020.81 1020.72 1020.67 1020.67 1020.74 1020.84 1020.98 1021.15 1021.31 1021.46 1021.59 1021.70 1021.77 1021.81 1021.82 1021.80 1021.74 1021.64 1021.50 1021.33
Thickness
5755 5737 5720 5723 5729 5728 5722 5711 5703 5700 5700 5687 5676 5670 5670 5674 5675 5674 5674 5676 5679 5683 5689 5696 5701 5706 5710 5715 5719 5724 5730 5734 5739 5742 5744 5747 5749 5751 5753 5753 5753 5752 5751 5750
5729 5715 5722 5727 5724 5718 5711 5699 5693 5690 5691 5678 5664 5660 5662 5663 5661 5661 5660 5662 5666 5671 5677 5682 5687 5691 5695 5699 5705 5711 5716 5722 5727 5731 5736 5740 5744 5746 5749 5751 5750 5750 5749 5747
5713 5712 5722 5715 5705 5701 5697 5691 5687 5681 5676 5667 5659 5649 5647 5650 5652 5653 5653 5652 5655 5658 5662 5668 5672 5676 5681 5686 5692 5698 5703 5709 5716 5722 5727 5733 5737 5739 5741 5744 5746 5747 5746 5744
5709 5711 5709 5701 5695 5692 5683 5690 5686 5679 5661 5645 5646 5632 5630 5633 5636 5640 5640 5642 5644 5647 5651 5655 5660 5664 5668 5673 5680 5685 5690 5697 5703 5711 5717 5722 5726 5729 5733 5737 5739 5740 5740 5740
5701 5703 5697 5691 5690 5689 5684 5684 5677 5669 5653 5634 5627 5621 5617 5621 5622 5626 5628 5631 5633 5636 5639 5643 5648 5652 5657 5663 5668 5674 5678 5685 5691 5699 5706 5712 5717 5722 5726 5730 5732 5733 5733 5734
5700 5703 5696 5690 5691 5687 5680 5675 5664 5650 5637 5617 5614 5611 5606 5608 5610 5615 5619 5622 5624 5627 5630 5634 5639 5643 5647 5652 5657 5662 5667 5673 5680 5688 5695 5701 5707 5713 5717 5721 5723 5724 5725 5725
5687 5687 5689 5689 5679 5677 5667 5654 5638 5631 5614 5610 5613 5607 5601 5608 5609 5609 5610 5614 5617 5619 5622 5626 5630 5634 5637 5642 5647 5652 5657 5663 5671 5677 5684 5690 5696 5703 5708 5711 5714 5715 5716 5716
5676 5666 5677 5679 5670 5663 5656 5645 5628 5620 5609 5603 5607 5599 5600 5609 5609 5609 5609 5611 5613 5615 5617 5620 5623 5627 5630 5634 5639 5644 5650 5655 5662 5668 5674 5680 5686 5691 5697 5701 5704 5706 5707 5708
5670 5666 5680 5678 5672 5666 5653 5637 5634 5617 5609 5600 5600 5600 5603 5608 5606 5607 5607 5608 5609 5611 5614 5616 5620 5622 5625 5629 5634 5639 5643 5648 5654 5660 5666 5671 5676 5680 5686 5690 5693 5695 5698 5700
5680 5666 5669 5672 5670 5659 5649 5638 5624 5613 5604 5597 5597 5593 5589 5597 5600 5602 5603 5603 5606 5609 5612 5614 5617 5619 5623 5627 5631 5635 5639 5643 5647 5652 5657 5662 5666 5671 5675 5679 5681 5685 5687 5689
5683 5665 5660 5660 5652 5645 5643 5634 5618 5604 5600 5593 5589 5589 5601 5598 5599 5599 5601 5604 5605 5606 5608 5611 5614 5617 5621 5625 5628 5631 5635 5638 5642 5646 5650 5654 5658 5662 5665 5668 5671 5674 5677 5678
5678 5660 5650 5656 5660 5657 5645 5633 5621 5609 5597 5592 5587 5589 5609 5604 5603 5602 5604 5606 5607 5608 5609 5611 5613 5616 5619 5622 5625 5628 5631 5634 5637 5641 5644 5648 5651 5654 5657 5659 5662 5665 5667 5668
5682 5663 5647 5648 5648 5649 5643 5634 5623 5611 5598 5592 5589 5594 5612 5608 5608 5608 5607 5608 5609 5610 5611 5613 5615 5616 5618 5620 5622 5625 5628 5631 5634 5637 5640 5643 5645 5648 5650 5652 5655 5656 5657 5659
5684 5661 5654 5649 5645 5645 5642 5636 5628 5617 5602 5598 5597 5601 5608 5610 5609 5610 5611 5612 5612 5613 5614 5615 5616 5618 5619 5620 5622 5624 5626 5629 5632 5634 5636 5638 5639 5641 5643 5645 5647 5648 5650 5650
5685 5663 5661 5658 5657 5653 5647 5641 5634 5625 5615 5606 5609 5608 5612 5614 5614 5614 5615 5616 5618 5618 5619 5619 5619 5620 5621 5622 5623 5624 5626 5628 5630 5632 5633 5633 5635 5637 5639 5639 5640 5641 5642 5643
5682 5668 5665 5659 5660 5656 5649 5646 5641 5634 5625 5620 5618 5616 5624 5624 5622 5621 5620 5621 5621 5621 5622 5623 5624 5624 5623 5623 5624 5625 5625 5627 5628 5629 5629 5630 5631 5633 5633 5633 5634 5634 5634 5635
5676 5669 5658 5650 5657 5652 5645 5651 5645 5641 5637 5630 5623 5626 5632 5630 5629 5628 5627 5626 5626 5626 5627 5627 5628 5627 5627 5627 5627 5626 5626 5627 5628 5627 5627 5628 5628 5629 5628 5629 5628 5628 5628 5628
5679 5667 5652 5649 5652 5648 5659 5667 5660 5652 5648 5643 5640 5639 5638 5637 5637 5636 5636 5634 5633 5633 5633 5633 5633 5633 5633 5632 5631 5630 5630 5629 5628 5627 5626 5626 5626 5626 5625 5625 5624 5623 5623 5622
5686 5672 5656 5647 5648 5653 5667 5670 5664 5655 5653 5656 5649 5648 5646 5645 5641 5639 5644 5643 5641 5641 5640 5640 5639 5639 5638 5636 5635 5634 5632 5630 5629 5627 5626 5625 5625 5624 5623 5622 5620 5619 5618 5617
5683 5676 5662 5653 5659 5660 5676 5682 5678 5667 5656 5666 5660 5655 5651 5646 5633 5637 5649 5649 5649 5648 5647 5646 5646 5645 5643 5642 5640 5638 5635 5633 5630 5628 5627 5625 5624 5623 5621 5619 5617 5616 5614 5612
5684 5674 5666 5659 5660 5668 5686 5685 5680 5656 5664 5677 5670 5664 5656 5650 5647 5651 5654 5655 5654 5654 5653 5652 5651 5649 5648 5647 5645 5641 5639 5636 5633 5631 5629 5627 5625 5623 5620 5618 5616 5614 5612 5609
5684 5674 5668 5661 5662 5672 5693 5687 5679 5680 5686 5682 5676 5671 5665 5662 5662 5661 5661 5660 5659 5657 5657 5656 5654 5653 5652 5651 5649 5645 5642 5640 5637 5634 5631 5627 5625 5624 5620 5617 5614 5612 5609 5607
5691 5692 5685 5684 5691 5704 5701 5702 5702 5697 5691 5686 5682 5678 5674 5670 5668 5667 5666 5664 5662 5662 5660 5659 5658 5657 5656 5655 5653 5649 5647 5644 5640 5636 5632 5628 5625 5622 5619 5616 5613 5610 5608 5605
5700 5699 5695 5693 5702 5708 5707 5707 5707 5702 5699 5694 5690 5685 5680 5676 5674 5672 5668 5666 5665 5664 5663 5662 5661 5659 5658 5658 5656 5654 5651 5647 5643 5638 5633 5629 5625 5622 5619 5616 5613 5610 5607 5603
5712 5700 5699 5701 5709 5713 5714 5712 5711 5706 5703 5698 5694 5689 5685 5681 5677 5675 5671 5669 5668 5667 5665 5664 5663 5662 5661 5660 5659 5657 5654 5650 5645 5640 5636 5631 5627 5623 5620 5616 5613 5610 5607 5604
5713 5712 5709 5712 5722 5718 5720 5722 5717 5710 5705 5701 5696 5691 5689 5685 5681 5679 5674 5672 5671 5669 5668 5667 5666 5665 5663 5663 5661 5660 5657 5653 5648 5643 5639 5634 5629 5625 5622 5618 5615 5613 5610 5608